EW1928 Torre del campo ES current weather conditions

sailwx.info

Wind from 183 at 4 knots gusting 6

Air temperature 10.0° C
Dewpoint 6.5° C

Last reported at 2020-Jan-17 17:58 UTC.
Time now 2020-Jan-17 18:34 UTC

Location: N 37°47' W 003°54'.
View on Google Maps.

See reports from other nearby stations

  
Tides and Currents Weather Stations Pressure Air Temp Water Temp Dewpoint Dewpoint Depression Visibility Wind Speed Wind Dir Waves Ship Positions
date/time (UTC)wind fromknots sea level pressurealtimeterstation pressurevisibilityair tempwater tempwave heightnotes
2020-Jan-17 17:58 183 4 gusting 6 10.0
2020-Jan-17 17:49 179 3 gusting 6 10.0
2020-Jan-17 17:40 183 2 gusting 5 10.6
2020-Jan-17 17:22 178 2 gusting 4 11.1
2020-Jan-17 17:04 227 0 gusting 2 12.2
2020-Jan-17 16:46 232 12.8
2020-Jan-17 16:37 339 0 gusting 2 13.3
2020-Jan-17 16:28 023 0 gusting 2 13.3
2020-Jan-17 16:19 045 0 gusting 2 13.3
2020-Jan-17 16:10 045 1 gusting 2 13.9
2020-Jan-17 16:01 024 1 gusting 3 13.9
2020-Jan-17 15:52 325 0 gusting 3 14.4
2020-Jan-17 15:34 355 1 gusting 3 13.9
2020-Jan-17 15:25 263 0 gusting 3 13.9
2020-Jan-17 14:58 319 0 gusting 2 13.3
2020-Jan-17 14:40 308 1 gusting 5 13.3
2020-Jan-17 14:31 012 3 gusting 6 13.9
2020-Jan-17 14:13 344 2 gusting 6 13.9
2020-Jan-17 14:04 323 1 gusting 6 13.9
2020-Jan-17 13:46 316 1 gusting 6 14.4
2020-Jan-17 13:37 263 1 gusting 4 14.4
2020-Jan-17 13:28 237 1 gusting 3 14.4
2020-Jan-17 13:19 151 1 gusting 4 14.4
2020-Jan-17 13:10 202 1 gusting 3 13.9
2020-Jan-17 13:01 241 2 gusting 6 13.3
2020-Jan-17 12:52 289 1 gusting 6 13.3
2020-Jan-17 12:43 257 2 gusting 4 12.8
2020-Jan-17 12:34 326 2 gusting 6 12.8
2020-Jan-17 12:25 256 1 gusting 6 12.8
2020-Jan-17 12:16 290 2 gusting 6 12.8
2020-Jan-17 12:07 328 2 gusting 5 12.8
2020-Jan-17 11:58 285 2 gusting 6 12.8
2020-Jan-17 11:49 258 2 gusting 5 13.3
2020-Jan-17 11:40 234 4 gusting 7 13.3
2020-Jan-17 11:31 275 3 gusting 6 13.9
2020-Jan-17 11:22 281 3 gusting 7 13.9
2020-Jan-17 11:13 302 5 gusting 8 13.3
2020-Jan-17 11:04 325 5 gusting 8 12.8
2020-Jan-17 10:55 241 5 gusting 8 12.8
2020-Jan-17 10:46 262 3 gusting 8 12.2
2020-Jan-17 10:37 222 2 gusting 6 12.2
2020-Jan-17 10:19 286 3 gusting 6 12.2
2020-Jan-17 10:10 248 1 gusting 4 12.2
2020-Jan-17 10:01 260 4 gusting 7 12.2
2020-Jan-17 09:52 262 3 gusting 7 12.2
2020-Jan-17 09:43 244 4 gusting 8 12.2
2020-Jan-17 09:34 231 4 gusting 7 12.2
2020-Jan-17 09:25 243 3 gusting 6 11.7
2020-Jan-17 09:16 268 3 gusting 6 11.7
2020-Jan-17 09:07 281 3 gusting 6 11.7
2020-Jan-17 08:58 247 3 gusting 7 11.7
2020-Jan-17 08:49 233 4 gusting 11 11.7
2020-Jan-17 08:40 248 4 gusting 10 11.7
2020-Jan-17 08:31 262 4 gusting 8 11.7
2020-Jan-17 08:22 240 5 gusting 8 11.7
2020-Jan-17 08:13 223 5 gusting 9 11.1
2020-Jan-17 08:04 245 4 gusting 6 11.1
2020-Jan-17 07:55 218 4 gusting 6 11.1
2020-Jan-17 07:46 238 4 gusting 6 11.1
2020-Jan-17 07:37 232 3 gusting 7 11.1
2020-Jan-17 07:28 242 3 gusting 8 11.1
2020-Jan-17 07:19 247 3 gusting 6 11.1
2020-Jan-17 07:10 300 3 gusting 4 11.1
2020-Jan-17 07:01 247 4 gusting 6 11.1
2020-Jan-17 06:52 245 4 gusting 7 11.1
2020-Jan-17 06:43 257 4 gusting 7 11.1
2020-Jan-17 06:34 248 4 gusting 8 11.1
2020-Jan-17 06:25 229 4 gusting 7 11.1
2020-Jan-17 06:07 233 3 gusting 6 11.1
2020-Jan-17 05:58 214 4 gusting 7 11.1
2020-Jan-17 05:40 227 4 gusting 7 11.1
2020-Jan-17 05:31 256 3 gusting 8 11.7
2020-Jan-17 05:22 225 4 gusting 8 11.7
2020-Jan-17 05:13 266 3 gusting 6 11.7
2020-Jan-17 05:04 234 4 gusting 6 11.7
2020-Jan-17 04:55 235 3 gusting 6 11.7
2020-Jan-17 04:46 235 2 gusting 6 11.7
2020-Jan-17 04:37 267 4 gusting 7 11.7
2020-Jan-17 04:28 240 4 gusting 9 11.7
2020-Jan-17 04:19 243 5 gusting 8 11.7
2020-Jan-17 04:10 242 4 gusting 7 11.7
2020-Jan-17 04:01 236 4 gusting 6 11.7
2020-Jan-17 03:52 230 4 gusting 7 11.7
2020-Jan-17 03:43 241 4 gusting 8 11.7
2020-Jan-17 03:34 234 5 gusting 8 11.7
2020-Jan-17 03:25 232 5 gusting 9 11.7
2020-Jan-17 03:16 246 4 gusting 7 11.7
2020-Jan-17 03:07 256 4 gusting 6 11.7
2020-Jan-17 02:58 247 4 gusting 6 11.7
2020-Jan-17 02:49 214 5 gusting 9 11.1
2020-Jan-17 02:40 233 5 gusting 9 11.1
2020-Jan-17 02:22 233 5 gusting 6 11.1
2020-Jan-17 02:13 226 4 gusting 6 11.1
2020-Jan-17 02:04 230 4 gusting 7 11.1
2020-Jan-17 01:55 216 4 gusting 6 11.1
2020-Jan-17 01:46 268 3 gusting 9 11.1
2020-Jan-17 01:37 227 5 gusting 9 11.7
2020-Jan-17 01:28 240 5 gusting 8 11.7
2020-Jan-17 01:10 252 5 gusting 9 11.1
2020-Jan-17 01:01 242 5 gusting 9 11.1
2020-Jan-17 00:52 236 5 gusting 9 11.1
2020-Jan-17 00:43 234 5 gusting 7 11.1
2020-Jan-17 00:34 238 5 gusting 6 11.1
2020-Jan-17 00:25 220 5 gusting 6 11.1
2020-Jan-17 00:07 220 5 gusting 9 10.6
2020-Jan-16 23:58 223 4 gusting 6 10.6
2020-Jan-16 23:49 233 4 gusting 7 10.6
2020-Jan-16 23:40 240 4 gusting 7 10.6
2020-Jan-16 23:31 234 3 gusting 6 10.6
2020-Jan-16 23:13 308 3 gusting 6 11.1
2020-Jan-16 22:55 234 3 gusting 8 11.7
2020-Jan-16 22:46 230 3 gusting 9 11.7
2020-Jan-16 22:37 242 4 gusting 9 11.7
2020-Jan-16 22:28 251 4 gusting 7 11.7
2020-Jan-16 22:19 270 5 gusting 7 11.7
2020-Jan-16 22:10 228 4 gusting 6 11.7
2020-Jan-16 22:01 265 4 gusting 6 12.2
2020-Jan-16 21:52 251 5 gusting 9 12.2
2020-Jan-16 21:43 244 5 gusting 9 11.7
2020-Jan-16 21:34 250 5 gusting 7 11.7
2020-Jan-16 21:25 234 5 gusting 8 11.7
2020-Jan-16 21:16 213 5 gusting 9 11.7
2020-Jan-16 21:07 220 4 gusting 9 11.7
2020-Jan-16 20:58 230 4 gusting 9 11.7
2020-Jan-16 20:40 229 4 gusting 8 11.7
2020-Jan-16 20:31 246 4 gusting 8 11.7
2020-Jan-16 20:22 234 4 gusting 7 11.7
2020-Jan-16 20:13 234 4 gusting 6 11.7
2020-Jan-16 20:04 225 3 gusting 6 11.7
2020-Jan-16 19:55 227 2 gusting 6 11.7
2020-Jan-16 19:46 258 2 gusting 4 11.1
2020-Jan-16 19:37 192 1 gusting 5 10.6
2020-Jan-16 19:19 214 1 gusting 3 11.1
2020-Jan-16 19:10 224 2 gusting 3 11.1
2020-Jan-16 19:01 181 2 gusting 4 10.6
2020-Jan-16 18:52 136 1 gusting 3 10.6
2020-Jan-16 18:43 168 1 gusting 2 10.0
2020-Jan-16 18:34 181 1 gusting 2 10.0
2020-Jan-16 18:25 181 1 gusting 3 10.6
2020-Jan-16 18:07 181 1 gusting 2 10.0
2020-Jan-16 17:58 181 1 gusting 2 10.0
2020-Jan-16 17:49 181 1 gusting 2 10.0
2020-Jan-16 17:40 181 1 gusting 2 10.6
2020-Jan-16 17:31 181 1 gusting 3 11.1
2020-Jan-16 17:22 181 1 gusting 3 11.7
2020-Jan-16 17:13 189 1 gusting 2 12.2
2020-Jan-16 17:04 231 0 gusting 1 12.8
2020-Jan-16 16:55 071 0 gusting 1 12.8
2020-Jan-16 16:46 283 0 gusting 2 13.3
2020-Jan-16 16:37 251 0 gusting 2 13.3
2020-Jan-16 16:28 337 0 gusting 3 13.3
2020-Jan-16 16:10 324 1 gusting 5 14.4
2020-Jan-16 16:01 351 1 gusting 5 14.4
2020-Jan-16 15:43 299 1 gusting 6 15.0
2020-Jan-16 15:25 029 2 gusting 6 14.4
2020-Jan-16 14:58 336 2 gusting 6 15.0
2020-Jan-16 14:49 347 1 gusting 3 15.0
2020-Jan-16 14:13 349 2 gusting 3 15.0
2020-Jan-16 14:04 036 1 gusting 4 14.4
2020-Jan-16 13:55 032 1 gusting 5 14.4
2020-Jan-16 13:01 056 3 gusting 6 14.4
2020-Jan-16 12:34 327 3 gusting 6 16.7
2020-Jan-16 12:25 283 3 gusting 6 16.7
2020-Jan-16 11:58 294 4 gusting 8 16.1
2020-Jan-16 11:49 244 6 gusting 13 15.6
2020-Jan-16 11:40 264 4 gusting 8 15.6
2020-Jan-16 11:31 269 3 gusting 9 14.4
2020-Jan-16 11:22 339 1 gusting 4 13.9
2020-Jan-16 11:13 036 1 gusting 3 13.3
2020-Jan-16 10:55 047 1 gusting 3 13.3
2020-Jan-16 10:46 066 1 gusting 2 12.8
2020-Jan-16 10:37 060 0 gusting 2 12.8
2020-Jan-16 10:28 071 1 gusting 3 12.8
2020-Jan-16 10:19 072 1 gusting 3 12.8
2020-Jan-16 09:43 093 12.8
2020-Jan-16 08:48 181 2 gusting 3 9.4
2020-Jan-16 08:40 188 1 gusting 3 8.9
2020-Jan-16 08:22 181 2 gusting 4 7.8
2020-Jan-16 08:12 199 2 gusting 4 7.8
2020-Jan-16 08:03 186 3 gusting 6 7.8
2020-Jan-16 07:55 172 3 gusting 6 7.8
2020-Jan-16 07:46 186 3 gusting 5 7.8
2020-Jan-16 07:36 188 2 gusting 4 7.2
2020-Jan-16 07:28 190 5 gusting 8 8.3
2020-Jan-16 07:19 183 6 gusting 9 7.8
2020-Jan-16 07:10 184 6 gusting 8 7.8
2020-Jan-16 07:01 173 5 gusting 8 7.8
2020-Jan-16 06:51 188 3 gusting 4 6.7
2020-Jan-16 06:42 178 2 gusting 5 6.7
2020-Jan-16 06:33 185 3 gusting 5 6.7
2020-Jan-16 06:24 184 3 gusting 6 6.7
2020-Jan-16 06:15 169 2 gusting 4 6.7
2020-Jan-16 06:06 182 2 gusting 4 7.2
2020-Jan-16 05:57 188 2 gusting 4 7.2
2020-Jan-16 05:48 184 2 gusting 3 7.2
2020-Jan-16 05:39 184 3 gusting 4 6.7
2020-Jan-16 05:30 202 2 gusting 4 6.7
2020-Jan-16 05:21 194 2 gusting 4 6.7
2020-Jan-16 05:12 182 2 gusting 4 6.7
2020-Jan-16 05:03 181 2 gusting 4 6.7
2020-Jan-16 04:54 170 3 gusting 5 6.7
2020-Jan-16 04:45 183 2 gusting 5 6.7
2020-Jan-16 04:36 189 2 gusting 4 6.7
2020-Jan-16 04:27 197 2 gusting 4 7.2
2020-Jan-16 04:18 187 4 gusting 6 7.8
2020-Jan-16 04:09 187 5 gusting 7 8.3
2020-Jan-16 04:00 187 4 gusting 6 7.8
2020-Jan-16 03:51 177 3 gusting 6 7.8
2020-Jan-16 03:42 181 3 gusting 5 7.8
2020-Jan-16 03:33 188 3 gusting 6 7.8
2020-Jan-16 03:24 173 4 gusting 6 7.8
2020-Jan-16 03:15 174 4 gusting 6 7.8
2020-Jan-16 03:06 181 4 gusting 6 6.7
2020-Jan-16 02:57 181 2 gusting 4 6.7
2020-Jan-16 02:48 198 2 gusting 4 6.7
2020-Jan-16 02:39 184 2 gusting 5 7.2
2020-Jan-16 02:30 182 4 gusting 6 7.8
2020-Jan-16 02:21 178 4 gusting 6 7.8
2020-Jan-16 02:12 189 5 gusting 9 7.8
2020-Jan-16 02:03 169 4 gusting 6 7.8
2020-Jan-16 01:54 179 5 gusting 9 8.3
2020-Jan-16 01:45 172 4 gusting 6 7.8
2020-Jan-16 01:36 175 4 gusting 7 8.3
2020-Jan-16 01:27 177 4 gusting 6 8.3
2020-Jan-16 01:18 185 5 gusting 8 8.3
2020-Jan-16 01:09 177 5 gusting 8 8.3
2020-Jan-16 01:00 185 5 gusting 6 8.3
2020-Jan-16 00:51 179 5 gusting 7 8.3
2020-Jan-16 00:42 164 5 gusting 7 8.3
2020-Jan-16 00:33 170 5 gusting 8 8.3
2020-Jan-16 00:25 178 4 gusting 6 8.3
2020-Jan-16 00:15 185 5 gusting 9 8.3
2020-Jan-16 00:06 172 4 gusting 6 8.3
2020-Jan-15 23:57 177 4 gusting 9 8.3
2020-Jan-15 23:48 181 4 gusting 7 8.3
2020-Jan-15 23:30 175 5 gusting 8 8.3
2020-Jan-15 23:21 177 5 gusting 7 8.3
2020-Jan-15 23:12 181 6 gusting 8 8.3
2020-Jan-15 23:04 176 6 gusting 9 8.3
2020-Jan-15 22:55 165 6 gusting 9 8.3
2020-Jan-15 22:46 181 4 gusting 9 7.8
2020-Jan-15 22:36 183 3 gusting 6 7.8
2020-Jan-15 22:27 175 2 gusting 5 7.8
2020-Jan-15 22:00 185 2 gusting 6 7.2
2020-Jan-15 21:51 224 2 gusting 3 7.2
2020-Jan-15 21:42 214 2 gusting 3 7.8
2020-Jan-15 21:33 181 2 gusting 3 7.8
2020-Jan-15 21:24 186 2 gusting 4 7.8
2020-Jan-15 21:15 189 2 gusting 4 7.2
2020-Jan-15 21:06 186 2 gusting 4 7.2
2020-Jan-15 20:57 181 2 gusting 4 7.8
2020-Jan-15 20:48 181 2 gusting 3 7.8
2020-Jan-15 20:39 181 1 gusting 3 8.3
2020-Jan-15 20:31 181 1 gusting 2 8.9
2020-Jan-15 20:22 193 1 gusting 2 8.9
2020-Jan-15 20:12 168 3 gusting 5 9.4
2020-Jan-15 19:54 181 3 gusting 5 9.4
2020-Jan-15 19:36 189 2 gusting 6 8.9
2020-Jan-15 19:18 177 2 gusting 3 8.3
2020-Jan-15 19:10 181 3 gusting 4 8.3
2020-Jan-15 19:01 182 2 gusting 4 8.3
2020-Jan-15 18:51 178 2 gusting 3 8.3
2020-Jan-15 18:42 176 2 gusting 4 7.8
2020-Jan-15 18:33 184 3 gusting 4 7.8
2020-Jan-15 18:15 181 2 gusting 3 8.3
2020-Jan-15 18:07 179 2 gusting 4 8.3